Weather History for Montgomery, NY

Change the Weather History Date:

Saturday, April 5, 2014

  Actual Average (KPOU) Record (KPOU)
Temperature  
Mean Temperature 42 °F 45 °F  
Max Temperature 52 °F 56 °F 82 °F (1985)
Min Temperature 35 °F 33 °F 17 °F (1964)
Degree Days  
Heating Degree Days 24 20  
Month to date heating degree days 106  
Since 1 July heating degree days 5551  
Cooling Degree Days 0 0  
Month to date cooling degree days 0  
Year to date cooling degree days 0  
Moisture  
Dew Point 31 °F    
Average Humidity 71    
Maximum Humidity 96    
Minimum Humidity 41    
Precipitation  
Precipitation 0.00 in 0.13 in 3.04 in (1984)
Month to date precipitation 0.64  
Year to date precipitation 9.95  
Sea Level Pressure  
Sea Level Pressure 29.83 in    
Wind  
Wind Speed 7 mph (WNW)    
Max Wind Speed 22 mph    
Max Gust Speed 31 mph    
Visibility 9 miles    
Events      
T = Trace of Precipitation, MM = Missing Value Source: NWS Daily Summary

Daily Weather History Graph

Daily Weather History Graph

Search for Another Location

Airport:

Trip Planner

Search our weather history database for the weather conditions in past years. The results will help you decide how hot, cold, wet, or windy it might be!

Date:

Astronomy

Apr. 05, 2014 Rise Set
Actual Time 6:33 AM EDT 7:26 PM EDT
Civil Twilight 6:05 AM EDT 7:54 PM EDT
Nautical Twilight 5:31 AM EDT 8:28 PM EDT
Astronomical Twilight 4:57 AM EDT 9:03 PM EDT
Moon 10:36 AM EDT (4/5) 12:37 AM EDT (4/5)
Length of Visible Light 13h 49m
Length of Day
12h 53m
Waxing Crescent, 34% of the Moon is Illuminated
Apr 5
Waxing Crescent
Apr 7
First Quarter
Apr 15
Full
Apr 22
Last Quarter
Apr 29
New

Hourly Weather History & Observations

Time (EDT) Temp. Windchill Dew Point Humidity Pressure Visibility Wind Dir Wind Speed Gust Speed Precip Events Conditions
12:13 AM 37.0 °F 31.6 °F 35.1 °F 93% 29.77 in 6.0 mi NNE 6.9 mph - 0.00 in   Overcast
12:45 AM 37.0 °F 31.0 °F 34.0 °F 89% 29.77 in 10.0 mi NNE 8.1 mph - 0.00 in   Overcast
12:54 AM 37.0 °F 31.6 °F 34.0 °F 89% 29.78 in 10.0 mi NNE 6.9 mph - 0.00 in   Overcast
1:54 AM 37.0 °F 34.5 °F 35.1 °F 93% 29.75 in 10.0 mi NNE 3.5 mph - N/A   Overcast
2:04 AM 37.0 °F 34.5 °F 35.1 °F 93% 29.75 in 10.0 mi North 3.5 mph - N/A   Overcast
2:11 AM 37.0 °F - 35.1 °F 93% 29.75 in 10.0 mi Calm Calm - N/A   Overcast
2:54 AM 37.0 °F - 35.1 °F 93% 29.75 in 10.0 mi Calm Calm - N/A   Overcast
3:54 AM 37.0 °F - 35.1 °F 93% 29.74 in 10.0 mi Calm Calm - N/A   Overcast
4:54 AM 37.0 °F - 35.1 °F 93% 29.74 in 10.0 mi Calm Calm - N/A   Overcast
5:13 AM 37.0 °F - 35.1 °F 93% 29.73 in 10.0 mi Calm Calm - N/A   Overcast
5:54 AM 36.0 °F 32.1 °F 34.0 °F 93% 29.75 in 6.0 mi South 4.6 mph - N/A   Mostly Cloudy
6:05 AM 36.0 °F 31.1 °F 34.0 °F 93% 29.74 in 6.0 mi South 5.8 mph - N/A   Scattered Clouds
6:22 AM 35.1 °F 29.3 °F 34.0 °F 96% 29.75 in 5.0 mi SSW 6.9 mph - N/A   Scattered Clouds
6:27 AM 35.1 °F 31.0 °F 34.0 °F 96% 29.75 in 5.0 mi SSW 4.6 mph - N/A   Mostly Cloudy
6:54 AM 36.0 °F 30.3 °F 34.0 °F 93% 29.76 in 5.0 mi SSW 6.9 mph - N/A   Overcast
7:54 AM 37.9 °F 31.5 °F 36.0 °F 93% 29.78 in 7.0 mi SW 9.2 mph - N/A   Mostly Cloudy
8:01 AM 39.0 °F 33.4 °F 37.0 °F 93% 29.77 in 7.0 mi WSW 8.1 mph - N/A   Partly Cloudy
8:54 AM 46.0 °F 40.6 °F 37.9 °F 73% 29.79 in 10.0 mi West 11.5 mph - N/A   Overcast
9:54 AM 48.0 °F - 32.0 °F 54% 29.81 in 10.0 mi West 17.3 mph 27.6 mph N/A   Mostly Cloudy
10:54 AM 48.0 °F - 28.9 °F 48% 29.81 in 10.0 mi NW 13.8 mph 27.6 mph N/A   Overcast
11:54 AM 46.9 °F - 28.0 °F 48% 29.82 in 10.0 mi WNW 9.2 mph 19.6 mph N/A   Overcast
12:54 PM 48.0 °F - 28.0 °F 46% 29.82 in 10.0 mi WNW 15.0 mph 31.1 mph N/A   Mostly Cloudy
1:54 PM 48.9 °F - 28.0 °F 44% 29.83 in 10.0 mi West 16.1 mph 23.0 mph N/A   Overcast
2:54 PM 48.9 °F - 27.0 °F 43% 29.85 in 10.0 mi North - - N/A   Overcast
3:54 PM 48.9 °F - 28.0 °F 44% 29.86 in 10.0 mi WNW 18.4 mph 28.8 mph N/A   Mostly Cloudy
4:54 PM 48.0 °F - 25.0 °F 41% 29.89 in 10.0 mi West 21.9 mph 28.8 mph N/A   Mostly Cloudy
5:54 PM 45.0 °F 37.9 °F 24.1 °F 44% 29.94 in 10.0 mi WNW 16.1 mph 27.6 mph N/A   Overcast
6:54 PM 43.0 °F 36.4 °F 23.0 °F 45% 29.97 in 10.0 mi WNW 12.7 mph 24.2 mph N/A   Overcast
7:54 PM 41.0 °F 34.3 °F 21.0 °F 45% 30.00 in 10.0 mi NW 11.5 mph 21.9 mph N/A   Mostly Cloudy
8:54 PM 39.9 °F 32.5 °F 21.0 °F 47% 30.02 in 10.0 mi WNW 12.7 mph 20.7 mph N/A   Clear
9:54 PM 37.9 °F 33.5 °F 21.0 °F 51% 30.04 in 10.0 mi WNW 5.8 mph - N/A   Clear
10:54 PM 37.0 °F 30.4 °F 21.0 °F 52% 30.05 in 10.0 mi NW 9.2 mph - N/A   Clear
11:54 PM 36.0 °F 27.5 °F 21.0 °F 55% 30.06 in 10.0 mi NW 12.7 mph 17.3 mph N/A   Clear